Theta_e
315 314 315 315 315 313 313 312 312 311 310 314 313 317 316 312 309 321 319 318 315 310 304 307 310 303 301 305 304 305 304 304 304 304 304 302 304 303 302 301 300 301 300 299 298 299 296 298 295 298 299 299 301 303 304 305 304 303 298 303 304 312 299 299 297 300 302 304 305 306 306 305 301 301 302 300 297 300 300 298 302 302 305 301 300 296 302
315 314 315 315 314 313 313 312 312 312 311 310 311 315 314 313 313 312 317 324 317 308 301 302 304 304 304 304 303 305 303 303 302 302 304 302 302 302 302 302 303 301 303 301 298 302 294 299 298 296 300 298 304 303 304 305 301 301 298 298 304 296 300 299 291 290 291 295 298 299 302 302 299 297 300 302 303 304 301 301 304 300 305 304 299 293 301
314 314 315 315 314 313 312 312 312 312 312 311 313 314 314 314 318 315 312 317 312 302 304 306 304 301 301 302 300 301 302 304 304 303 302 304 303 303 302 303 302 301 303 301 302 302 299 297 302 300 301 299 306 303 303 304 301 304 308 319 311 302 300 298 290 287 285 286 286 288 291 294 298 301 301 302 304 302 301 295 298 291 302 305 301 301 307
314 315 315 314 314 313 312 312 312 312 311 310 313 319 315 313 304 308 312 312 308 312 309 306 301 305 304 302 301 302 300 303 305 304 303 305 304 303 303 304 304 303 301 300 299 299 302 300 301 300 300 300 304 302 304 303 302 310 317 320 305 302 303 304 299 294 292 294 296 303 304 298 294 298 300 301 303 302 302 300 299 295 303 302 304 304 304
315 315 315 315 314 313 312 312 312 312 310 310 312 319 317 319 310 307 302 309 308 306 305 305 303 301 303 302 300 300 300 302 301 305 300 304 303 303 304 302 300 301 301 298 300 302 300 302 300 299 299 300 300 306 302 304 307 318 315 307 302 301 297 305 303 303 300 299 300 299 301 297 297 297 298 301 300 300 299 296 297 306 304 295 306 306 305
315 316 316 315 314 313 313 312 312 311 310 309 315 319 321 303 307 309 315 300 298 304 301 304 303 304 303 301 301 300 300 299 298 304 305 304 305 302 309 303 302 302 301 302 300 301 301 301 298 303 302 301 302 300 304 301 306 309 303 307 302 300 296 299 299 298 301 302 300 300 300 299 298 298 298 299 302 300 298 302 303 305 300 299 306 307 306
315 316 316 316 314 313 314 313 312 311 309 310 321 318 315 314 313 311 315 307 304 304 305 304 304 302 303 304 301 300 300 298 300 299 302 303 302 303 299 300 302 302 304 304 302 303 297 297 304 303 302 301 302 300 301 303 303 302 302 302 304 300 295 300 298 297 298 300 300 300 299 298 299 298 299 299 299 298 301 302 304 310 307 309 309 308 308
315 316 316 316 315 314 314 312 312 311 309 320 323 314 310 310 310 308 315 314 308 313 305 305 306 303 309 306 301 302 299 298 300 301 301 299 301 304 300 302 302 303 304 306 301 303 304 303 302 305 304 302 302 299 301 299 302 301 300 301 306 297 297 302 298 295 296 298 300 300 299 298 296 297 298 298 298 297 298 301 312 313 310 310 309 307 307
315 316 316 316 315 314 314 313 312 311 311 324 323 315 314 314 319 320 313 308 304 305 305 306 308 306 302 300 302 302 300 298 301 301 303 300 299 302 300 302 303 303 304 304 303 305 308 308 305 305 303 303 303 302 303 304 300 303 302 302 306 301 296 299 298 292 293 297 298 298 298 298 297 296 297 298 298 296 298 299 311 310 307 308 307 304 305
315 316 316 316 315 314 314 313 313 311 312 320 321 315 318 317 321 324 318 309 315 305 309 307 304 299 304 303 300 301 301 304 305 303 304 302 302 302 302 303 302 304 303 303 304 306 306 305 305 305 305 305 304 305 306 305 301 300 301 304 298 299 297 293 294 291 292 296 298 297 297 296 293 293 295 298 300 300 298 300 310 313 311 306 303 303 309
315 316 315 316 315 315 315 314 314 312 313 312 315 319 317 313 314 318 317 308 308 309 307 303 304 309 304 304 304 305 304 304 305 300 301 303 305 307 304 305 304 300 300 303 308 308 307 307 307 307 305 304 304 303 304 305 304 303 301 302 302 303 301 295 299 291 292 296 297 298 294 286 286 301 301 300 297 298 296 299 310 313 313 309 311 310 312
314 316 316 315 315 315 315 315 314 311 311 313 315 318 320 320 321 321 316 307 306 307 306 302 302 304 303 304 304 302 302 303 303 308 303 302 304 306 305 305 306 300 304 307 308 308 307 307 307 305 304 304 303 303 304 302 308 310 303 301 300 298 301 297 298 292 290 295 296 291 285 287 302 303 304 305 303 301 303 306 309 312 313 312 310 311 311
314 315 316 316 315 315 315 315 314 313 311 312 315 319 324 324 322 319 317 313 307 309 302 305 306 304 305 305 303 302 306 305 305 306 306 304 304 304 304 304 304 301 306 305 305 306 300 300 302 304 300 301 301 301 301 301 301 303 301 303 303 298 296 298 296 295 294 290 291 282 287 299 302 302 303 307 308 308 308 307 311 313 312 312 310 311 312
314 315 316 316 315 315 315 315 314 314 312 311 314 318 326 323 319 317 317 311 309 310 307 306 305 304 304 302 308 306 306 306 307 306 303 305 305 304 305 305 305 307 305 308 307 307 301 301 296 296 297 300 302 298 299 300 301 301 301 303 302 302 301 298 292 297 288 290 289 290 299 298 300 300 304 302 303 304 303 298 304 312 313 312 311 311 313
314 315 316 316 315 315 315 315 315 315 314 310 314 322 330 325 324 322 321 320 310 310 310 301 304 303 305 305 303 305 309 307 307 306 307 306 308 307 307 307 308 306 307 307 301 305 300 299 295 293 294 292 288 292 300 296 302 302 302 303 304 304 297 300 293 293 294 289 287 290 289 287 294 304 308 308 307 310 310 305 301 313 314 315 312 310 311
314 315 315 316 315 315 315 315 315 315 313 310 315 318 328 329 327 327 322 319 314 302 302 308 308 304 306 307 305 304 305 307 308 306 309 310 308 310 308 310 309 308 308 306 306 302 300 296 293 292 290 294 299 298 295 302 298 303 302 301 302 303 303 302 296 294 294 291 286 285 285 291 301 302 309 308 306 309 309 302 296 307 313 314 313 311 311
313 315 315 315 315 315 315 315 315 314 314 310 311 315 325 332 326 322 320 321 317 308 308 307 307 309 309 307 309 308 308 303 304 301 301 305 307 307 309 311 313 309 308 305 304 302 297 296 297 294 298 300 297 295 300 298 298 298 304 305 298 299 297 298 293 293 293 292 287 285 293 293 302 303 305 306 307 307 301 289 292 307 312 313 313 311 312
314 315 315 315 315 315 315 315 315 315 314 312 311 314 319 330 331 326 323 319 312 311 309 307 305 306 305 310 309 309 311 310 309 310 306 307 311 311 307 311 305 309 310 303 301 298 297 296 292 293 293 302 303 300 289 295 296 296 294 296 293 294 296 294 290 290 292 295 290 293 296 303 307 305 305 305 309 303 290 284 294 309 311 313 313 311 312
314 315 315 315 315 315 314 314 314 315 315 310 313 321 326 331 331 326 323 318 313 309 315 311 310 309 309 310 312 316 313 311 309 302 302 306 309 310 309 315 308 302 312 304 301 298 295 296 300 297 294 298 301 296 299 294 294 301 300 294 295 294 295 296 294 290 289 290 288 290 296 304 304 304 305 305 303 287 288 298 310 309 310 311 311 309 311
314 315 315 315 315 315 314 314 314 314 315 312 311 314 318 324 335 325 317 311 314 310 315 312 313 307 311 310 307 308 308 312 311 307 305 301 313 310 305 302 306 309 305 305 297 301 297 294 296 301 295 295 299 302 296 298 302 298 300 301 295 294 291 289 289 293 292 293 290 286 282 299 311 302 301 306 297 298 306 307 309 309 307 308 308 309 309
314 315 315 315 315 314 314 314 313 314 314 314 310 315 319 335 331 332 328 323 315 308 315 318 316 312 311 310 311 311 311 307 309 307 309 309 314 310 293 300 304 306 303 304 296 297 300 295 297 298 300 298 300 300 293 294 295 304 303 300 298 303 292 291 294 298 288 287 286 285 297 303 310 304 297 306 307 309 312 307 303 308 308 307 308 309 309
314 314 314 314 314 314 314 313 313 313 314 314 311 317 320 326 328 329 329 330 319 313 312 316 317 316 316 313 313 314 311 310 313 316 312 307 317 311 309 312 309 308 309 308 304 303 303 302 303 298 295 297 303 296 298 290 289 297 304 302 289 300 300 300 292 300 296 291 294 299 306 306 309 309 308 309 311 312 312 309 307 306 307 310 308 308 308
314 314 314 314 314 314 313 313 313 313 313 314 313 316 316 320 324 329 328 320 324 321 321 320 321 320 320 315 315 315 315 315 316 323 320 311 307 312 309 309 309 316 314 313 305 303 304 302 299 303 299 300 297 295 298 296 293 298 294 303 301 306 304 303 303 302 308 308 307 307 307 307 308 310 310 309 310 312 311 310 307 309 309 310 308 308 308
313 314 314 314 314 313 313 313 313 313 313 314 313 313 315 318 321 325 321 322 320 314 317 319 317 312 312 311 315 316 316 314 317 319 321 322 307 309 314 313 317 316 313 315 315 308 306 305 303 303 296 300 300 295 291 291 296 300 298 298 301 305 304 302 298 304 296 291 306 308 307 307 308 308 309 309 310 309 310 309 309 309 311 311 312 310 309
313 313 313 314 313 313 313 313 313 312 313 313 313 315 318 320 327 324 318 311 313 312 305 310 315 315 316 317 316 314 316 318 319 324 318 316 316 308 308 315 318 313 312 316 319 313 311 303 304 302 296 304 303 293 302 294 294 301 294 298 299 299 308 302 301 299 297 300 305 308 308 308 308 307 306 305 306 309 311 311 310 310 311 312 311 311 309
313 313 313 313 313 312 312 312 312 312 313 313 313 313 315 319 325 328 325 323 322 318 309 306 312 319 319 316 314 316 319 317 315 315 315 316 315 319 316 318 318 321 319 319 316 310 307 305 305 304 298 299 307 298 298 303 299 303 298 298 302 303 306 297 302 297 300 307 305 307 307 309 307 310 308 307 307 308 309 310 310 309 308 308 309 310 308
313 313 313 312 312 312 312 312 312 312 312 313 312 314 317 320 325 326 321 319 313 311 312 308 312 315 318 314 316 318 316 315 315 315 316 315 313 318 317 317 314 316 315 314 316 311 309 306 304 299 304 304 307 304 304 301 300 299 299 304 307 303 298 303 301 296 296 297 301 306 300 297 305 309 310 308 310 310 309 309 308 308 308 307 306 307 310
312 312 312 312 312 312 311 311 312 312 312 312 313 315 319 320 325 331 327 327 315 309 308 307 309 313 317 314 317 317 317 318 315 316 319 315 316 317 319 317 315 314 314 312 307 306 305 302 300 306 307 306 303 300 306 305 303 300 299 301 304 301 303 301 297 296 295 303 308 309 308 308 308 308 311 310 310 310 308 308 307 308 308 308 307 305 306
312 312 312 311 312 311 311 311 312 312 312 311 314 316 319 323 326 326 325 331 327 317 314 312 314 314 307 311 317 316 317 316 320 316 315 317 317 316 317 316 314 315 314 313 311 308 305 305 309 304 303 308 303 299 300 294 295 293 298 305 306 308 309 307 306 305 306 309 309 312 309 306 307 309 311 309 310 309 308 309 309 308 308 308 308 306 305
312 312 311 311 311 311 311 311 312 312 312 312 315 317 317 318 324 321 320 324 325 321 310 308 304 312 320 315 313 316 316 317 317 317 316 315 316 316 317 317 315 316 313 310 309 303 306 305 307 308 309 312 302 300 296 296 293 296 305 306 308 308 309 310 310 306 303 309 310 311 310 311 311 311 310 313 312 311 308 307 308 307 308 308 307 307 308
312 312 311 311 311 312 312 312 312 312 312 314 316 315 313 308 317 321 317 323 325 320 314 314 307 314 313 318 320 315 314 315 320 315 316 317 317 317 318 318 316 317 311 310 308 308 307 302 304 305 310 309 306 300 296 295 293 297 305 307 308 308 307 308 310 311 311 310 310 311 312 310 312 310 313 312 311 312 311 310 313 316 310 309 308 308 308
312 311 311 312 312 312 312 312 312 312 313 314 315 314 313 314 318 317 315 319 324 318 313 308 308 309 310 315 318 320 315 317 315 316 318 322 317 319 318 317 314 317 313 309 311 308 305 307 305 305 304 309 306 300 299 295 291 294 305 306 309 308 309 308 309 310 311 312 311 309 307 308 310 309 309 311 309 313 313 311 310 309 314 310 310 308 308
312 311 312 312 313 313 313 312 312 312 313 313 312 312 312 311 311 313 317 323 321 316 318 311 305 308 307 310 316 318 317 318 315 316 314 318 316 317 313 318 316 314 315 309 303 301 307 307 307 303 305 310 303 300 297 294 297 303 305 306 306 308 308 309 310 311 311 312 311 305 304 307 310 313 312 313 312 310 311 311 310 310 309 308 307 307 307
311 311 312 313 314 314 314 313 313 312 311 311 317 316 320 314 314 311 318 324 320 320 319 310 305 304 306 315 307 317 318 313 311 314 309 316 319 314 311 312 314 308 311 306 309 307 309 307 303 303 305 303 305 299 289 297 302 302 303 303 305 306 308 307 307 307 308 309 311 311 310 310 312 313 314 312 311 312 312 311 310 307 306 306 306 306 306
311 312 313 314 315 315 315 314 315 316 318 320 320 319 318 312 312 314 320 321 313 313 311 313 311 304 304 305 303 311 321 312 308 313 308 313 318 312 312 307 309 303 307 314 307 305 303 303 307 301 297 303 298 290 293 298 301 302 303 303 305 305 305 303 304 307 308 309 309 308 309 310 309 308 308 310 310 311 309 309 310 307 305 305 306 306 306
312 313 314 314 314 314 316 316 314 316 318 317 317 321 318 317 314 323 324 327 319 311 310 311 310 305 303 299 299 311 317 310 314 315 313 314 312 316 314 309 301 307 312 306 301 305 302 310 304 294 301 293 290 294 296 302 302 302 304 304 305 305 304 305 306 307 308 309 308 307 307 307 306 306 307 308 309 309 309 308 308 307 306 306 305 306 306
312 313 313 313 314 317 317 319 325 319 316 318 320 320 318 321 324 325 324 321 323 324 312 310 305 305 308 307 310 315 313 301 312 308 313 308 306 311 309 306 301 307 306 303 303 301 305 312 304 296 291 290 293 302 304 304 304 304 305 306 308 308 308 309 310 308 307 307 307 306 304 305 306 306 306 306 307 309 308 306 307 306 305 305 306 307 307
312 312 313 315 317 314 315 316 319 320 320 317 318 318 316 316 314 315 315 312 317 316 313 313 304 310 316 310 303 314 311 308 312 305 307 311 305 304 309 305 304 304 295 298 302 309 305 303 299 293 296 302 304 305 305 306 308 309 308 308 308 309 310 310 310 308 304 303 303 304 304 304 304 306 306 305 305 305 307 307 308 309 310 310 309 309 308
310 314 316 317 316 311 314 319 325 318 318 320 320 314 314 317 314 310 310 314 312 307 312 309 306 313 310 306 309 316 313 306 303 308 301 309 303 298 306 297 304 303 293 297 300 309 297 298 299 296 292 299 301 302 307 308 309 308 309 309 310 310 310 309 309 307 306 304 304 305 304 301 301 304 306 306 307 309 310 310 309 310 308 308 308 310 310
314 315 316 316 313 315 323 322 319 321 321 314 318 316 307 316 308 300 316 304 303 313 314 304 315 314 313 307 306 307 317 309 301 301 303 305 309 300 303 301 304 299 290 293 298 308 296 288 296 292 290 298 300 304 306 307 307 308 309 309 309 310 309 309 309 310 310 310 309 308 308 307 307 306 306 307 307 306 308 310 309 310 310 311 311 308 309
317 318 317 314 317 322 324 325 322 320 315 312 312 311 308 300 311 312 309 303 302 306 312 310 311 310 313 314 312 306 318 319 318 316 310 303 312 309 302 297 306 296 293 292 301 303 299 294 291 288 292 298 301 304 306 307 307 308 309 309 309 309 308 308 308 308 309 308 308 307 308 308 308 308 308 308 308 308 308 309 308 309 308 308 309 308 308
308 308 311 313 315 319 322 322 320 314 314 316 304 296 301 305 313 310 309 298 302 309 308 310 305 307 307 310 311 314 314 318 314 311 307 300 308 304 299 302 303 295 289 299 305 300 297 286 286 290 297 300 304 305 306 306 306 306 306 307 308 307 306 306 305 306 307 306 307 307 308 308 308 308 308 308 308 308 308 308 308 308 309 310 310 309 309
310 311 311 313 317 317 318 305 314 312 296 295 295 291 299 295 302 302 304 309 313 308 312 319 315 318 316 318 314 314 314 318 310 310 306 303 308 307 301 298 297 289 296 306 301 295 289 286 287 294 300 302 304 304 305 306 306 306 306 306 305 306 305 304 305 304 305 305 305 306 306 306 307 308 309 308 307 307 308 310 310 310 310 308 307 307 308
314 317 315 316 312 312 313 294 313 306 295 297 294 289 296 296 301 305 303 304 310 306 313 307 309 306 304 312 310 312 315 315 313 310 307 310 303 301 298 291 294 301 306 298 295 289 290 294 295 297 300 302 303 305 305 305 305 304 304 304 305 305 303 303 304 304 303 304 305 305 306 306 306 307 308 308 307 306 307 307 309 310 310 309 308 307 308
311 312 308 304 298 302 295 286 309 299 291 296 299 299 300 299 301 303 301 310 309 308 310 310 313 309 306 316 316 312 312 305 315 305 300 304 300 301 295 293 301 302 296 292 293 292 293 290 297 299 300 302 303 304 304 304 304 303 302 303 303 302 302 301 301 303 302 303 303 304 303 304 304 304 305 306 308 308 307 306 308 309 309 309 308 307 308
310 303 298 293 290 294 294 290 293 292 303 309 303 304 303 305 306 307 311 310 310 309 307 309 310 309 306 312 306 304 309 309 304 304 307 304 297 292 303 307 302 294 294 292 288 285 287 291 296 298 301 302 302 303 301 301 302 302 301 300 299 301 301 300 300 302 302 302 303 302 302 303 303 303 304 305 306 306 306 308 309 309 309 308 308 308 308
307 312 303 297 292 296 307 294 296 301 307 309 309 310 307 308 311 311 312 314 310 312 311 313 310 312 307 309 308 308 309 310 302 304 306 298 296 300 306 299 291 292 286 284 288 289 292 295 298 301 301 300 300 301 301 300 300 300 300 301 301 300 300 300 300 300 300 301 301 301 301 302 303 303 303 303 304 306 307 308 308 309 309 308 309 309 309
298 307 310 292 291 296 294 301 307 311 309 311 311 311 313 315 311 309 313 314 314 313 311 311 309 312 307 314 308 300 306 304 300 303 305 301 301 297 289 292 292 292 294 290 289 294 295 298 300 300 300 302 300 299 300 300 299 299 299 299 299 300 300 300 300 300 300 299 300 300 300 303 303 303 302 302 303 305 306 307 307 309 309 309 309 308 308
312 301 297 296 302 303 302 307 307 305 308 312 312 312 312 311 309 311 314 318 316 316 313 312 311 309 303 308 304 303 299 305 293 292 302 300 294 288 289 286 289 286 293 295 293 296 296 297 299 299 300 300 300 300 300 299 299 299 298 298 298 299 300 300 300 300 301 301 300 300 300 301 301 301 302 302 301 302 305 306 308 308 308 308 308 308 307
301 299 307 301 302 303 305 306 304 305 308 310 310 310 313 312 311 312 315 317 318 318 314 313 312 303 304 304 293 299 293 305 301 294 297 294 295 296 294 288 291 290 291 296 296 297 297 298 299 299 299 300 300 300 300 299 300 301 299 299 300 300 300 299 299 300 300 300 301 300 300 301 300 299 300 300 301 303 302 303 305 306 308 308 308 307 307
311 306 302 309 302 302 305 300 301 303 304 307 310 310 312 309 311 314 315 315 317 314 312 307 306 302 294 293 290 288 293 306 301 295 295 294 298 297 292 289 293 296 296 298 299 298 299 299 299 298 299 300 300 302 303 302 301 301 300 300 300 300 300 300 300 300 300 300 301 301 300 300 300 301 302 303 303 303 302 302 302 303 306 307 306 307 307
298 296 300 305 308 307 307 309 312 309 309 311 311 314 314 311 314 317 320 318 315 308 304 310 305 296 291 289 297 302 305 299 295 298 296 296 301 295 294 296 296 299 299 297 296 298 299 300 301 301 300 300 301 302 303 302 302 301 301 301 301 301 301 300 300 300 300 300 301 301 301 302 302 302 303 302 301 301 301 301 303 303 305 306 307 307 306
Wind_Speed
20 20 21 21 21 20 20 20 21 21 23 8 6 6 3 3 6 11 5 7 5 2 4 6 2 2 2 7 6 5 2 8 5 5 6 5 5 9 5 6 8 4 3 7 5 3 6 7 4 2 2 2 5 6 7 10 9 6 5 6 4 9 1 2 4 6 5 9 14 8 9 2 5 3 5 6 4 5 1 4 4 6 7 9 3 5 3
20 20 20 21 21 21 21 19 19 17 15 6 7 3 3 5 6 4 3 2 1 4 2 3 2 2 5 1 5 0 4 3 8 8 6 4 2 3 4 11 6 4 8 10 10 6 3 3 4 3 5 2 5 5 8 10 4 6 1 1 5 3 3 1 1 3 6 9 7 5 5 4 1 3 6 7 3 5 3 4 2 6 5 11 8 9 3
20 20 20 21 21 21 21 20 17 16 13 8 3 3 5 6 5 6 4 4 5 5 2 2 1 5 6 5 5 4 5 4 5 4 6 5 6 4 3 5 3 6 4 3 2 3 6 2 1 6 6 3 1 8 5 5 3 4 3 4 4 1 2 3 2 1 2 2 2 2 2 5 4 5 9 9 0 8 6 5 5 8 3 7 8 6 5
19 20 20 21 21 22 22 22 20 16 12 9 2 3 3 3 3 5 2 2 5 1 1 2 6 2 5 6 3 4 4 5 5 0 6 4 7 2 6 3 4 10 3 3 5 6 6 0 1 2 2 2 1 4 3 4 3 2 9 6 4 2 3 2 3 2 2 2 5 4 4 3 3 8 11 7 5 6 5 5 6 5 6 7 9 18 9
19 20 21 21 21 22 22 23 24 22 14 6 3 3 3 3 4 2 4 4 6 6 4 6 5 3 2 1 4 5 4 2 7 5 2 5 5 5 7 8 5 4 4 6 6 11 4 3 6 5 2 6 3 2 6 1 4 4 4 4 2 1 3 0 1 2 4 6 4 8 9 2 6 12 10 5 7 9 7 5 5 7 11 5 3 17 17
19 20 22 21 21 22 23 24 25 27 22 6 3 2 1 3 4 3 1 1 2 3 5 6 6 7 7 3 7 3 7 6 5 5 6 6 2 1 1 9 4 4 9 6 3 6 8 7 7 12 7 4 2 2 1 2 3 6 5 7 3 1 1 8 11 5 3 8 6 4 6 8 10 13 13 7 1 7 3 1 5 4 7 10 10 8 14
18 20 22 22 20 21 23 25 26 28 30 10 4 3 4 5 4 5 11 5 4 3 1 8 5 5 5 2 7 7 8 9 7 5 8 7 7 6 4 6 7 5 6 6 3 3 4 7 5 3 7 9 2 0 2 1 5 2 2 3 1 1 2 6 8 7 9 8 8 5 8 8 4 10 6 8 10 7 1 1 7 11 7 14 15 12 11
18 20 21 21 20 20 22 24 25 28 30 15 2 7 6 7 6 5 11 6 5 1 4 1 6 3 1 0 5 5 7 7 7 7 7 6 8 5 6 3 7 10 7 5 5 3 4 2 1 4 4 9 5 4 4 3 1 3 6 3 0 3 2 8 3 6 7 12 4 3 5 5 6 5 6 7 8 5 6 5 15 16 15 13 15 13 10
18 19 20 20 19 19 20 22 24 27 24 6 7 5 6 5 4 4 5 7 4 4 4 5 3 2 5 4 4 6 6 6 5 4 6 6 7 7 10 8 5 4 9 5 6 5 3 3 3 5 8 1 5 3 4 6 6 6 1 1 1 2 3 5 2 3 3 5 6 3 2 8 4 3 7 2 1 4 2 2 9 12 10 14 14 12 10
17 18 19 20 18 18 19 19 22 24 20 5 5 6 7 6 6 4 3 3 4 4 6 3 4 3 2 3 3 4 9 7 6 3 2 5 5 6 7 8 6 2 5 4 6 8 8 9 8 6 6 7 5 1 2 1 4 4 3 1 3 3 3 3 3 2 2 5 10 9 4 2 2 4 6 5 1 1 5 4 9 18 18 14 10 6 7
17 18 19 18 17 19 18 18 19 20 12 7 5 4 7 7 7 7 4 4 6 1 4 4 3 1 4 2 2 1 5 7 3 4 3 7 6 4 4 7 5 4 7 6 7 6 7 5 6 5 6 9 5 3 2 3 1 4 3 2 2 0 1 2 2 1 2 6 7 10 2 2 3 2 5 4 5 3 4 3 16 12 9 7 10 13 12
16 18 18 18 16 17 18 18 17 16 11 4 3 4 5 6 4 3 4 5 6 5 2 2 4 4 8 8 9 9 9 8 7 5 3 3 5 7 9 6 4 3 6 4 1 2 6 7 6 5 8 9 9 8 8 6 1 3 1 2 2 5 1 0 1 2 2 6 7 5 3 3 2 6 4 10 5 2 8 11 8 13 16 16 13 12 11
16 17 17 17 17 17 17 17 17 16 16 7 3 3 6 7 3 4 3 3 3 8 3 2 3 6 6 9 7 6 6 8 5 2 4 6 5 6 5 4 3 6 6 3 4 2 3 4 4 1 7 8 8 9 10 8 7 6 2 2 1 2 3 0 0 1 2 3 1 1 2 4 6 5 5 7 14 12 18 13 12 11 15 16 16 12 9
16 17 17 16 16 17 17 17 18 18 17 12 5 4 4 8 6 5 4 3 4 7 5 5 8 7 8 6 2 1 3 5 2 7 5 4 5 6 7 5 6 3 2 3 2 1 3 1 1 1 1 1 1 3 5 7 8 8 6 3 4 2 1 1 2 2 2 3 2 3 1 3 3 3 2 3 3 4 9 9 5 10 8 12 13 12 11
15 16 17 16 16 16 16 17 18 19 19 18 4 5 4 5 4 2 3 3 5 6 3 4 5 5 4 4 4 4 1 6 3 2 3 3 1 5 4 4 2 4 2 1 3 1 2 2 2 2 2 1 1 1 2 2 4 4 5 3 1 2 1 2 2 2 3 1 1 0 1 2 2 1 3 1 7 12 9 10 5 5 8 8 12 13 12
15 16 16 15 16 15 16 17 17 17 18 19 6 5 4 4 4 2 3 3 4 3 4 4 3 4 4 3 5 3 3 2 0 4 3 3 5 2 6 3 4 4 3 5 1 2 2 1 3 3 1 2 2 1 1 3 1 2 1 5 3 3 1 2 0 2 2 1 2 1 1 2 1 4 2 3 6 9 10 7 2 1 8 8 11 11 13
14 15 15 15 15 15 16 16 16 16 15 15 6 6 3 5 5 4 3 2 2 4 4 9 9 7 5 5 5 4 4 3 3 2 1 1 4 6 3 3 2 2 4 2 2 1 2 2 3 3 3 3 0 2 1 1 0 1 1 3 6 2 2 2 2 3 3 2 2 3 0 0 1 5 5 7 6 6 5 5 5 5 9 8 6 10 14
14 14 14 14 14 15 15 15 17 16 15 15 6 4 4 4 5 5 2 2 3 3 6 6 6 3 4 2 2 3 3 3 3 2 2 3 2 1 5 3 4 4 5 2 1 2 2 2 3 2 2 2 2 4 2 5 3 1 3 2 1 2 2 3 5 4 4 4 3 0 1 1 2 5 5 5 4 4 5 4 4 8 8 10 9 8 13
13 14 14 14 14 14 14 15 16 17 16 17 10 3 3 3 4 5 2 2 3 2 9 6 8 6 3 3 2 1 1 0 1 2 4 1 1 5 5 2 3 2 1 1 2 1 2 2 1 3 1 2 2 1 4 2 2 1 3 2 1 2 1 2 2 3 4 2 4 1 0 0 3 7 7 3 4 3 2 3 2 4 4 8 13 9 4
12 13 13 13 13 13 14 14 15 15 16 15 9 2 7 9 1 5 5 3 2 4 7 6 9 9 6 3 3 3 4 2 3 1 3 2 0 5 4 1 2 1 4 4 1 2 2 3 3 1 2 2 0 3 2 3 5 1 0 3 1 1 2 2 3 2 2 2 1 3 1 2 2 7 5 4 4 2 2 3 5 11 14 15 11 10 10
12 12 13 13 12 13 13 13 14 14 15 14 9 4 5 1 4 4 3 2 2 4 3 8 10 8 8 8 8 8 4 5 5 3 4 3 0 0 1 1 2 1 1 1 2 2 2 3 3 2 2 2 2 2 1 3 4 3 4 2 2 4 3 3 1 4 2 2 2 1 2 3 4 4 3 0 3 3 1 4 10 10 10 10 10 7 8
11 11 12 12 12 12 12 12 13 13 14 14 12 3 2 5 6 5 5 0 2 3 3 9 9 8 6 4 4 3 5 7 5 3 2 3 2 2 1 0 3 3 2 1 1 1 2 1 1 2 3 1 1 0 2 2 2 4 5 3 0 6 3 1 2 3 2 0 2 5 1 7 7 9 6 5 5 4 4 6 7 9 8 7 10 10 10
10 11 12 12 11 12 12 12 12 12 13 14 10 2 2 6 6 7 6 4 2 4 5 6 6 7 7 4 1 3 3 3 3 2 1 1 3 3 5 3 2 1 2 3 3 0 1 2 2 1 2 1 1 2 2 1 1 3 4 1 2 3 5 4 2 2 1 2 1 4 4 7 9 7 7 6 5 5 5 6 7 6 7 7 9 8 9
10 11 11 12 11 11 11 12 11 11 12 12 7 3 3 4 6 6 5 3 2 4 5 5 2 3 3 6 2 5 3 3 2 5 4 2 1 1 2 4 2 2 2 1 0 1 2 1 2 2 2 1 2 2 2 1 2 1 1 2 2 2 5 4 2 5 2 1 1 2 4 8 7 8 6 6 5 6 7 10 8 8 7 8 8 9 8
10 11 12 11 11 11 11 11 11 11 10 11 10 5 5 4 3 5 4 4 4 4 3 4 0 2 2 7 2 2 5 6 3 1 2 4 2 1 2 2 3 2 2 0 0 2 1 1 2 1 2 1 0 1 2 2 1 3 2 1 2 1 3 1 1 3 2 3 2 4 6 3 6 9 7 6 7 7 8 7 8 9 9 8 8 8 8
10 11 11 11 11 11 11 10 10 10 10 11 9 4 4 4 6 6 3 2 2 2 2 2 3 8 5 5 6 9 4 3 5 3 4 2 6 1 5 4 3 0 1 1 3 1 2 1 0 1 1 1 2 1 1 2 3 1 2 3 2 1 3 1 2 0 6 3 10 8 12 6 3 4 7 9 8 8 8 9 9 10 8 6 6 6 4
10 11 11 11 10 10 10 10 9 9 10 9 6 4 4 5 6 3 3 2 4 2 2 1 3 5 9 11 4 2 4 5 1 2 2 4 3 2 3 3 3 2 3 2 1 1 0 0 0 2 1 1 1 1 3 4 2 2 2 2 1 1 2 1 1 1 1 1 0 5 2 2 10 5 3 6 7 10 10 8 9 7 7 6 6 5 5
11 11 11 10 10 9 9 9 9 9 9 10 6 5 4 4 5 0 2 2 3 2 3 4 4 6 10 11 6 2 4 1 1 1 1 2 4 1 2 2 3 4 1 1 0 0 0 2 1 1 1 1 1 2 1 1 1 3 4 3 3 3 3 3 2 4 4 1 2 3 1 4 4 5 1 10 7 9 9 9 8 8 8 7 7 6 4
11 12 11 11 9 9 9 9 9 9 10 9 5 5 5 6 7 2 3 1 1 2 3 4 5 4 2 2 4 4 6 4 1 2 6 10 12 10 8 7 5 2 2 1 2 0 0 1 2 1 0 1 1 2 0 2 1 3 2 2 2 1 1 1 1 1 0 0 1 2 0 0 3 5 4 5 7 9 9 7 8 9 8 6 6 7 5
12 12 11 10 10 9 9 8 9 9 8 5 3 2 1 3 4 6 7 5 3 1 2 3 3 1 2 2 6 5 2 3 5 7 7 5 6 6 4 4 3 3 3 3 2 1 2 1 1 0 1 1 1 1 1 1 2 1 2 2 2 1 1 1 1 1 2 2 2 1 0 4 3 4 5 2 4 6 6 7 6 8 8 6 5 7 7
12 11 11 10 10 10 9 8 7 8 9 3 2 2 2 2 1 4 7 5 4 2 2 1 4 3 3 2 1 3 2 3 2 4 3 4 2 2 2 3 2 1 3 2 1 1 1 1 1 1 2 2 1 1 2 2 3 2 1 0 2 2 2 2 1 3 2 2 3 3 1 3 3 3 3 4 6 2 5 6 6 7 9 6 6 6 6
11 11 10 11 11 9 8 7 6 5 4 3 2 2 2 1 1 6 8 6 5 3 3 2 2 1 1 1 2 4 6 2 1 3 2 1 1 2 0 2 1 1 2 0 1 1 1 2 1 1 2 3 2 1 2 2 4 3 1 1 1 2 0 1 1 3 3 3 3 2 2 3 1 1 2 2 5 6 2 4 8 6 9 8 6 5 4
12 11 10 11 9 8 6 6 6 4 3 7 11 10 12 13 12 9 6 5 3 3 2 2 2 2 1 3 3 2 5 2 2 2 1 1 0 1 0 2 2 2 1 1 1 1 1 1 0 1 3 2 0 1 2 2 3 5 6 6 9 8 5 3 2 1 2 2 1 2 3 1 1 1 1 0 2 3 4 1 4 5 7 8 7 5 5
12 11 11 11 9 8 6 5 7 7 7 3 2 4 3 7 5 7 5 2 2 3 2 2 2 2 1 2 2 0 2 0 1 2 1 2 1 0 1 0 2 0 1 1 0 0 1 1 1 2 1 1 1 1 1 3 6 5 7 7 7 5 2 2 2 6 9 9 7 4 4 4 5 2 0 1 3 3 4 3 5 5 5 6 6 6 7
12 12 11 12 10 9 11 9 4 3 3 5 2 4 3 5 3 2 3 1 2 2 2 2 0 2 0 0 2 1 2 1 1 1 1 2 0 1 1 1 2 1 1 1 1 2 2 2 2 1 1 1 1 0 1 3 3 2 2 2 2 3 3 4 3 0 0 1 2 3 9 10 8 8 4 4 3 3 7 5 3 7 5 5 5 5 5
12 11 12 12 14 10 6 4 3 3 2 1 3 2 6 7 3 3 3 3 2 2 2 1 1 1 1 1 1 0 2 3 2 1 2 2 0 0 1 2 2 1 1 2 1 1 1 0 1 1 1 0 0 0 3 3 4 3 3 3 2 1 0 1 3 4 2 1 3 6 6 6 9 9 9 8 5 6 5 6 6 6 7 6 5 4 4
12 12 13 14 6 3 3 3 3 1 2 2 2 6 2 3 2 2 3 2 2 1 2 2 3 1 2 1 1 1 1 3 2 3 2 1 2 3 2 1 1 1 1 1 0 1 1 1 1 1 1 1 1 2 1 3 4 2 2 1 0 1 1 1 1 2 2 3 5 5 3 1 0 1 4 7 8 8 7 8 7 9 10 7 6 6 6
11 11 5 3 3 3 2 1 1 1 3 3 3 1 2 2 3 3 3 3 3 3 3 2 3 2 0 0 2 2 2 1 3 1 1 2 1 1 1 1 1 1 2 1 1 2 3 1 1 1 3 1 1 1 1 1 1 1 2 1 2 1 1 1 1 1 4 3 3 3 3 1 1 0 1 2 1 3 6 10 9 2 2 1 3 3 5
7 3 3 3 2 3 2 1 3 6 1 3 3 2 2 3 2 2 3 2 2 2 3 2 3 1 0 3 1 1 1 1 1 1 1 1 1 1 1 1 1 1 1 1 1 2 2 2 1 2 1 1 1 1 2 0 1 0 0 1 2 2 3 3 3 3 3 1 1 1 2 3 4 2 0 2 2 1 3 3 5 3 4 7 5 2 2
3 3 2 1 1 2 2 1 5 3 2 2 3 1 2 2 2 0 1 1 1 0 1 3 1 0 1 2 2 0 1 2 2 2 2 1 1 1 1 1 1 1 2 1 1 1 2 0 2 3 0 1 1 2 2 3 2 2 1 2 3 3 3 3 2 2 2 1 1 1 3 4 4 3 2 2 3 2 1 2 3 5 1 4 2 5 1
2 3 3 3 3 3 0 3 3 2 2 2 1 3 1 1 2 1 1 3 2 1 2 1 2 2 2 1 1 1 1 1 1 1 1 1 1 1 1 1 0 2 1 1 2 2 1 1 0 1 4 2 2 2 2 2 2 2 2 2 2 2 3 4 4 4 3 1 0 1 2 2 2 3 3 3 2 3 4 4 4 4 7 8 3 3 4
1 2 3 5 7 6 5 2 2 2 2 1 1 1 2 2 2 2 2 0 1 1 3 1 2 2 2 3 2 1 1 1 1 1 1 1 1 1 2 1 1 1 1 2 1 2 1 0 1 2 1 3 4 4 2 2 2 3 4 4 3 4 4 4 4 4 4 3 2 2 1 1 2 2 3 3 3 2 3 3 3 4 5 5 6 5 5
13 8 5 3 3 3 0 1 3 2 0 0 1 2 2 1 2 1 1 1 2 2 1 0 1 1 2 1 1 2 1 0 1 1 1 1 0 0 1 0 1 0 3 1 0 1 0 0 1 4 1 3 2 3 3 2 3 3 3 3 3 3 4 4 3 3 4 5 4 3 2 3 2 1 1 3 3 3 3 2 3 3 3 5 6 8 9
6 4 3 3 2 0 2 1 1 1 3 0 0 1 3 4 1 2 2 3 2 2 2 2 2 3 1 2 1 1 1 0 1 0 1 1 1 0 0 1 2 3 1 2 0 0 1 3 3 3 3 3 3 2 1 2 2 2 2 3 2 2 4 4 3 3 3 3 4 3 4 3 3 3 2 1 2 3 2 3 3 3 4 7 8 8 8
3 2 1 0 1 1 2 2 1 2 2 2 2 3 5 3 3 5 3 1 3 2 4 4 1 3 2 0 1 1 1 1 1 1 1 0 1 2 2 2 1 1 1 2 1 3 1 2 2 0 2 1 0 0 1 0 1 2 3 3 3 4 4 4 4 2 2 3 3 3 4 4 4 3 3 3 2 4 3 3 3 3 4 4 6 7 7
2 1 1 2 3 2 1 1 0 1 2 0 3 4 3 5 3 1 1 2 2 1 2 3 3 4 3 4 3 2 2 2 2 2 2 2 1 2 1 2 3 1 1 1 0 1 0 2 2 3 3 0 2 3 5 4 4 4 4 4 4 4 4 4 5 3 2 2 3 3 4 4 4 4 3 3 3 3 3 3 2 2 3 4 6 7 7
3 2 1 0 1 1 2 1 3 1 2 2 3 3 2 6 4 2 3 2 5 3 2 2 5 2 2 2 2 3 2 1 2 2 2 2 2 1 2 1 1 1 0 1 1 2 3 2 4 3 2 4 4 4 4 5 7 8 7 7 8 8 9 8 7 5 6 6 7 6 4 4 3 4 4 5 4 3 3 2 1 3 4 7 6 6 5
1 2 2 1 1 1 3 5 3 1 3 1 1 1 1 4 6 6 8 4 4 2 3 4 2 1 4 2 2 3 1 3 3 2 2 1 1 1 0 2 2 2 0 2 1 1 3 4 2 3 3 3 4 5 5 4 5 7 8 8 8 8 7 7 6 6 6 6 6 8 6 3 2 3 3 4 5 3 2 2 3 3 4 4 4 5 7
2 0 0 1 2 2 5 3 1 2 2 2 2 2 1 2 3 8 7 2 2 1 3 2 2 2 2 0 2 2 2 2 1 1 1 1 2 1 2 1 2 2 2 2 3 3 3 5 5 5 3 5 5 3 3 5 6 7 8 7 7 6 6 7 8 8 7 5 4 6 7 6 4 3 4 4 4 3 3 3 3 3 3 4 5 5 6
1 1 1 1 4 6 6 7 8 2 1 0 1 0 2 3 4 6 7 1 1 2 1 2 2 2 3 2 1 1 2 1 1 1 1 1 1 1 1 1 2 2 3 3 4 4 6 5 4 4 5 4 3 4 3 3 5 4 3 4 4 4 4 6 6 5 5 4 5 6 7 6 6 5 3 3 3 4 4 3 4 3 3 3 4 5 6
2 1 3 5 6 6 4 5 4 3 3 1 1 1 1 2 4 1 2 2 2 1 1 1 1 1 1 0 0 1 0 0 1 3 2 2 1 0 1 0 3 3 4 4 4 6 6 4 4 5 3 3 3 1 0 3 3 3 5 5 5 6 6 6 6 6 5 5 5 7 6 5 5 5 4 3 3 4 4 3 2 2 3 3 2 4 5
1 2 4 5 7 9 8 5 1 1 2 2 1 2 2 2 2 1 4 3 1 1 1 1 1 1 0 2 2 2 1 0 1 2 1 4 1 1 1 2 2 2 3 7 8 7 6 5 4 4 3 4 1 0 1 3 2 3 4 4 6 5 7 7 7 7 7 6 6 5 5 6 7 6 4 5 5 5 5 5 4 2 1 3 3 3 6
Wind_Direction
337 338 337 337 339 340 341 344 346 346 346 359 5 307 291 291 295 299 276 140 200 177 273 314 297 188 38 301 187 320 8 358 12 343 49 320 38 5 316 47 16 37 297 197 288 31 44 44 27 75 64 36 19 351 346 13 6 357 25 336 16 335 287 344 318 322 270 201 188 203 194 37 357 287 269 272 235 212 219 134 155 108 124 99 86 64 132
337 338 338 338 340 339 340 345 347 346 2 344 304 281 314 294 283 269 75 149 225 256 241 210 269 78 183 200 74 108 16 13 346 344 32 5 354 34 339 138 221 99 40 44 344 299 140 61 95 347 302 71 302 31 7 9 32 13 317 30 322 4 342 81 39 340 336 356 25 8 18 7 294 272 266 251 260 51 157 118 115 101 160 129 110 131 148
338 339 339 339 340 339 339 342 343 345 344 342 316 335 305 279 240 224 182 195 196 219 305 32 323 42 339 7 49 138 141 63 281 318 340 343 4 37 293 15 277 127 169 156 254 4 331 122 213 266 177 93 327 73 341 46 40 7 336 315 282 272 286 23 43 335 24 13 75 28 314 285 310 296 295 283 358 50 27 50 25 76 33 108 105 88 130
340 340 340 341 341 340 339 338 339 341 344 326 242 263 308 334 340 307 311 182 208 185 301 260 22 18 58 8 343 304 49 129 71 245 324 42 320 25 321 332 37 5 217 126 196 260 133 331 186 285 102 147 59 344 339 80 33 304 313 313 314 334 293 90 65 92 97 210 219 241 266 261 220 263 258 251 44 55 123 122 87 112 150 122 153 140 162
341 341 342 343 343 340 339 340 338 339 347 341 217 246 217 305 248 341 354 329 16 353 27 4 87 54 302 160 319 358 119 351 109 348 319 46 313 347 358 352 343 13 10 20 17 357 348 149 126 244 295 75 59 342 335 346 83 317 295 53 346 14 349 306 95 339 347 291 336 5 336 41 359 331 283 44 30 44 25 56 125 145 99 81 145 148 149
341 342 344 345 344 342 342 344 342 338 341 354 220 312 254 285 333 358 36 348 308 10 13 345 59 31 10 73 301 337 7 44 30 78 40 283 213 17 347 333 11 42 42 33 50 359 41 11 23 334 57 334 134 261 207 14 354 320 39 45 68 20 5 342 349 297 240 273 321 309 317 30 7 337 318 332 48 76 23 17 150 142 135 151 160 152 138
343 343 345 347 346 345 347 347 346 345 334 344 192 354 355 353 330 346 2 345 354 33 44 320 70 55 8 19 5 39 27 54 38 33 353 11 43 30 38 331 29 23 75 91 78 356 41 357 21 347 346 323 8 146 170 44 1 351 73 79 34 357 359 337 351 336 0 298 264 331 347 16 353 352 28 38 25 19 27 8 55 103 116 130 136 137 127
344 344 346 348 348 349 351 349 352 347 340 333 59 47 352 18 353 345 337 336 291 311 212 185 36 94 149 289 3 11 35 36 41 44 356 11 45 358 307 63 35 18 34 75 85 81 67 27 65 329 317 345 4 8 1 6 359 354 30 14 357 87 315 351 42 14 348 322 37 337 10 325 328 326 355 39 27 331 2 38 109 106 114 120 120 110 103
345 343 347 348 350 353 353 356 357 351 345 32 4 35 17 328 348 322 319 321 342 330 329 75 96 357 33 26 26 6 56 59 325 84 15 16 18 2 7 2 0 72 53 41 79 39 54 8 37 348 348 67 338 51 320 351 15 341 15 352 29 61 316 324 347 70 328 311 325 301 261 269 308 343 316 42 70 329 333 69 118 112 125 120 113 116 125
343 345 347 350 352 355 356 0 1 359 340 35 349 15 352 346 330 333 323 300 323 315 346 44 68 67 42 359 59 2 80 51 20 19 35 102 26 2 360 6 0 45 117 79 16 13 350 9 335 350 324 320 333 330 180 328 8 356 30 32 354 15 9 353 352 8 255 275 283 282 247 293 304 258 252 284 347 5 358 340 127 133 131 127 134 137 130
343 344 347 350 352 356 359 1 6 7 6 38 352 326 360 11 333 330 346 324 311 315 55 16 40 16 158 2 129 119 90 92 77 345 49 20 63 49 42 24 14 58 40 12 339 324 322 324 313 310 317 318 309 294 355 329 285 286 9 352 331 262 354 326 18 58 293 307 313 322 287 218 234 39 21 341 260 163 275 82 114 133 123 127 135 135 136
342 343 346 351 354 356 358 360 3 13 20 339 279 275 358 341 311 317 338 350 324 7 99 77 356 42 46 49 38 35 36 43 47 1 53 34 30 34 35 57 7 56 355 313 317 322 309 294 264 270 280 280 294 301 270 271 346 165 196 269 283 322 51 324 53 340 302 328 341 334 253 215 33 30 22 353 285 108 71 93 103 114 111 113 111 121 127
341 342 345 350 355 357 359 358 360 3 8 349 300 275 351 352 342 354 342 333 341 322 18 57 74 63 46 46 30 35 23 47 38 355 35 353 58 53 44 23 30 50 320 334 346 276 254 265 244 274 270 249 242 242 250 245 244 258 161 187 329 284 290 185 217 193 333 345 74 12 205 297 46 20 6 359 47 80 87 68 89 105 122 125 130 132 117
340 340 344 349 354 359 0 0 358 357 2 359 326 308 322 15 8 355 11 354 324 328 20 26 38 31 37 65 29 196 240 86 45 333 72 330 29 59 63 29 18 345 344 346 274 14 331 282 248 127 263 352 314 286 248 258 223 225 190 209 191 251 7 40 295 161 187 207 225 215 357 334 57 43 9 11 68 71 96 122 103 121 130 131 131 128 115
339 340 344 347 353 359 1 2 0 358 358 354 288 298 355 19 15 329 317 292 321 314 16 39 357 28 39 44 351 345 353 25 27 156 96 298 234 71 14 6 60 349 329 277 353 329 288 328 290 240 157 174 142 262 112 273 68 14 20 337 17 73 157 16 69 264 202 253 310 33 46 234 232 175 152 138 105 127 119 101 105 138 138 137 130 135 141
337 339 343 346 351 357 1 3 3 359 3 353 342 353 314 28 355 331 311 293 326 345 46 334 5 337 345 73 22 35 337 121 310 303 44 23 2 95 104 338 52 339 340 1 359 356 314 326 315 298 224 147 102 63 316 328 121 110 3 313 288 172 223 124 303 298 335 223 222 247 199 247 196 180 91 59 46 102 107 81 84 208 148 154 149 145 131
336 338 341 345 350 356 0 3 1 1 4 9 340 321 306 12 17 350 326 322 319 290 358 21 357 350 57 14 22 19 354 22 344 9 8 326 15 341 102 78 184 137 45 332 303 308 308 268 260 270 57 346 318 148 132 288 149 120 216 263 256 270 170 134 227 275 254 277 220 245 2 211 242 116 90 86 87 89 77 96 211 197 149 156 151 129 134
334 336 340 343 349 353 360 2 1 359 0 359 343 303 296 312 14 338 321 316 322 309 30 20 357 26 33 0 351 25 350 14 350 321 167 229 268 337 38 11 360 90 55 300 302 301 277 255 280 289 92 332 45 338 116 255 273 190 165 200 222 243 270 162 222 213 253 244 268 330 7 304 86 91 88 80 61 69 102 183 212 171 156 151 147 126 128
332 334 337 342 347 352 357 1 360 358 360 359 338 262 228 329 2 12 334 335 354 318 309 15 348 35 43 306 310 30 153 204 310 320 328 339 343 327 341 306 80 325 249 331 21 279 266 280 359 0 85 307 347 329 301 243 280 207 143 165 265 240 247 194 246 256 236 225 236 248 195 271 98 46 50 36 70 95 192 229 268 132 77 66 69 67 132
331 331 335 340 346 349 354 358 358 357 359 3 0 317 286 288 336 55 33 359 334 308 297 28 358 9 0 21 5 20 11 33 76 332 338 8 318 328 339 341 10 277 7 0 325 345 9 5 22 300 21 74 71 221 297 305 347 49 103 348 273 260 159 222 192 217 277 311 289 83 199 258 145 103 42 14 105 213 297 330 24 82 108 112 106 101 104
330 330 333 337 343 347 350 355 356 355 355 358 357 336 333 350 49 34 36 9 311 324 299 18 348 343 338 7 24 2 18 17 29 359 355 343 153 50 39 352 285 347 359 352 333 355 18 10 9 342 349 32 330 336 349 323 298 337 125 173 243 357 333 316 6 22 260 185 219 198 272 358 19 94 135 11 112 180 52 67 72 68 81 88 98 88 93
328 328 330 333 340 345 348 351 353 352 353 355 344 285 259 339 356 9 325 213 244 250 279 313 300 292 310 342 11 23 4 357 57 83 358 340 319 354 191 172 29 3 48 355 344 23 54 347 250 346 347 11 160 127 260 26 332 309 356 43 37 297 52 298 328 294 68 230 262 253 32 84 73 85 93 78 52 45 73 82 91 92 81 82 93 98 89
326 327 327 330 336 342 346 346 349 350 350 355 354 349 315 324 332 327 320 310 259 256 264 265 267 258 247 185 74 10 2 43 342 88 57 55 316 8 50 61 16 357 33 28 66 140 16 13 322 39 291 92 340 318 333 134 249 33 331 153 185 16 39 333 312 250 209 355 33 90 108 87 78 74 76 77 55 45 43 64 69 79 110 109 107 108 101
325 324 325 328 333 339 342 343 344 346 348 349 348 316 314 323 292 320 336 260 243 315 287 238 257 356 358 78 59 132 234 181 127 88 107 45 22 345 102 54 322 56 64 68 106 24 12 357 277 16 280 59 22 342 342 315 51 49 283 332 343 46 16 30 22 336 73 226 279 298 136 119 114 98 82 72 61 55 62 69 68 77 88 92 94 100 97
322 323 323 328 331 336 339 339 341 342 343 347 342 288 250 269 295 1 344 354 2 4 335 317 81 214 294 92 205 285 35 51 108 169 115 113 109 349 61 76 62 109 93 256 64 13 115 325 331 4 332 24 85 289 117 134 243 64 352 20 22 330 5 11 57 360 347 221 244 355 318 103 124 127 130 109 76 61 61 78 84 78 75 88 97 93 93
321 321 323 327 333 335 337 337 339 338 338 343 336 329 331 317 312 306 291 276 276 247 287 298 355 332 324 303 43 45 31 325 340 292 126 179 163 155 95 129 77 7 146 304 81 15 28 293 338 135 153 315 25 282 302 69 268 288 198 272 120 297 2 308 328 328 291 23 17 360 358 338 175 148 133 132 130 105 92 86 77 82 77 61 55 89 106
319 320 322 328 333 337 335 335 334 337 336 336 330 311 290 292 297 327 359 5 312 200 205 276 23 349 335 335 73 40 47 1 175 298 144 165 316 123 160 135 139 104 60 55 105 73 222 280 217 313 59 240 87 280 282 279 279 293 275 141 149 207 236 241 339 44 18 239 300 19 61 293 302 15 104 118 118 113 116 113 113 110 103 90 75 55 71
317 317 322 327 331 332 332 329 333 331 335 332 306 278 261 268 273 53 346 11 16 11 329 305 304 331 329 292 14 327 137 146 338 291 234 244 165 248 19 63 87 85 64 74 23 76 57 320 322 28 266 337 351 289 98 312 10 272 234 216 166 204 190 162 198 177 194 163 53 34 329 227 239 303 142 139 131 133 140 144 142 137 133 133 119 104 96
314 316 321 324 323 323 325 325 324 331 331 321 291 284 261 237 260 223 121 14 275 309 275 277 264 262 280 38 285 236 85 321 333 3 28 45 58 67 75 79 84 92 91 66 61 66 77 332 86 207 83 82 124 267 341 258 220 240 214 129 158 54 16 226 160 118 317 41 144 166 235 282 271 305 341 148 155 154 162 159 156 143 142 143 134 137 135
313 316 319 320 317 316 318 318 320 321 334 316 291 247 183 112 36 35 3 344 355 336 300 329 321 78 307 257 286 49 111 147 41 47 66 55 56 66 75 83 84 83 70 71 80 12 49 336 97 56 116 140 230 304 264 215 219 240 115 171 66 47 319 329 290 203 212 246 266 262 206 305 306 321 344 347 162 144 141 144 137 134 132 133 147 154 142
313 316 318 317 316 312 309 309 313 322 311 284 281 249 198 180 44 26 360 345 10 340 299 266 263 323 292 307 334 23 347 24 66 64 55 69 71 36 85 100 53 41 99 103 117 81 99 218 159 186 101 202 216 239 283 304 302 312 128 205 151 198 189 262 331 319 280 226 242 265 296 280 296 324 326 341 354 49 137 137 143 139 150 147 157 147 158
313 315 315 317 317 314 309 306 312 316 283 283 328 15 45 32 355 322 321 317 311 267 248 272 264 201 253 108 9 327 328 28 61 95 84 10 90 56 7 58 121 27 65 76 98 131 196 194 245 195 150 155 170 275 271 256 270 288 39 243 309 241 245 310 298 282 288 277 230 249 271 277 19 114 254 321 342 339 88 142 157 165 149 108 99 74 42
314 314 313 317 324 325 319 307 304 289 279 315 297 260 259 264 268 273 284 279 257 254 277 275 274 313 270 48 321 20 5 340 11 37 23 16 98 42 306 81 72 101 50 298 149 186 239 309 88 20 54 106 117 260 281 263 298 348 357 5 353 340 340 342 334 324 305 337 11 240 243 231 147 142 219 21 312 308 321 67 138 140 123 126 119 115 66
312 311 310 313 317 318 303 283 275 275 270 282 270 154 170 197 224 235 267 290 269 274 285 277 262 238 270 344 270 159 46 247 220 160 227 154 83 142 1 79 129 199 152 200 214 246 31 341 348 103 71 196 236 329 292 358 16 50 50 19 14 5 325 319 352 2 355 346 332 325 311 310 313 319 207 231 245 276 291 292 140 154 150 146 139 139 126
313 308 306 307 303 305 299 291 282 236 290 271 68 73 97 169 184 269 232 286 286 187 198 220 285 273 158 171 256 229 144 90 248 167 208 109 286 185 134 207 45 288 119 331 236 214 179 170 117 179 341 65 80 336 258 297 323 18 65 65 14 347 8 14 328 43 126 117 91 12 339 329 301 300 268 227 212 241 236 236 165 161 153 162 153 153 140
315 309 305 304 301 297 280 212 220 236 230 358 68 163 153 190 198 235 249 269 281 323 290 295 240 236 133 323 301 301 115 225 208 125 191 109 88 12 217 151 218 94 72 193 224 9 242 208 181 97 155 239 112 331 281 309 320 27 30 54 26 356 332 319 319 337 321 351 74 85 68 25 341 332 317 299 273 256 240 203 223 174 163 155 161 163 157
313 311 306 294 280 218 239 252 171 138 16 16 95 116 153 260 215 249 215 235 201 229 285 325 300 288 121 270 335 86 187 270 169 200 122 179 198 182 160 163 233 138 204 252 140 216 119 128 74 84 55 39 36 340 321 331 322 357 34 44 262 242 280 245 316 330 1 31 46 47 50 20 217 72 334 327 335 313 266 227 196 171 178 170 172 176 182
316 309 292 269 234 257 218 71 57 160 136 68 122 165 174 213 201 180 185 228 162 157 215 212 246 269 174 240 269 194 244 225 182 283 133 72 296 194 136 233 99 162 247 161 110 78 125 162 147 145 114 168 173 95 118 195 279 341 40 30 37 23 335 308 350 3 3 15 32 12 348 354 8 145 209 252 302 359 356 321 314 356 14 261 179 181 163
302 274 244 247 277 331 29 81 134 119 239 259 219 274 193 190 225 214 182 147 118 222 196 220 239 178 36 265 155 56 306 347 325 227 267 118 286 355 71 304 113 240 243 175 105 300 242 166 117 78 37 16 68 319 299 293 171 140 251 318 342 354 360 358 8 21 33 47 254 249 233 261 281 298 256 272 275 209 162 205 268 286 192 209 219 245 195
251 254 269 259 279 36 109 95 154 177 238 242 189 228 275 181 238 125 96 143 216 200 138 223 277 34 199 288 345 194 21 321 312 344 43 124 115 292 108 236 130 221 281 77 193 182 260 4 147 116 107 198 311 322 312 301 359 314 359 7 359 347 342 344 356 8 26 64 25 204 212 248 257 257 284 223 216 239 212 185 145 120 263 294 166 163 204
221 281 310 358 352 339 141 175 197 232 245 253 213 205 275 253 205 193 220 215 241 177 188 231 163 205 175 233 177 258 127 228 230 170 208 256 48 242 227 215 153 266 272 93 220 197 265 87 74 117 214 286 288 294 272 273 315 348 356 357 359 333 329 340 350 349 352 349 293 272 276 293 298 278 252 270 253 212 223 200 170 169 180 194 158 139 137
329 270 314 305 283 277 274 230 242 248 204 249 292 277 229 249 111 42 18 145 212 258 151 227 214 215 175 197 226 179 120 308 359 315 323 245 139 264 310 24 67 262 310 225 179 63 41 101 119 103 179 242 258 271 296 328 4 342 347 355 8 10 355 355 340 338 336 327 305 276 263 266 300 316 322 324 313 281 232 210 196 193 181 143 119 118 145
292 241 210 271 249 214 136 291 180 218 239 296 57 342 299 322 2 338 204 231 331 282 71 357 329 356 35 27 45 36 43 164 235 175 204 231 61 228 302 240 276 289 249 245 69 163 102 41 70 72 117 221 257 300 301 344 9 354 344 14 1 353 356 335 341 346 347 347 339 335 343 317 309 328 308 278 272 288 293 256 234 200 169 171 176 176 179
266 260 222 224 240 305 95 304 214 20 356 334 155 239 220 181 231 315 297 271 297 322 339 257 171 186 218 173 193 122 175 291 190 336 270 174 199 103 37 268 186 219 190 110 174 81 111 87 105 142 231 276 282 277 338 17 0 349 339 329 323 25 340 327 326 350 346 333 317 327 329 309 313 296 277 217 256 259 259 280 279 251 199 193 192 194 186
307 229 242 320 352 309 58 328 286 133 227 225 217 308 342 350 144 212 258 222 218 223 216 252 299 251 242 215 37 15 247 179 92 242 229 162 239 131 182 204 216 215 246 286 153 157 124 91 71 186 244 229 223 65 305 271 334 308 303 303 358 351 326 327 321 314 320 327 318 328 309 309 301 285 287 288 225 196 201 223 226 223 244 227 208 199 194
245 258 106 74 333 296 137 239 237 310 250 259 81 113 241 282 322 345 173 231 287 272 251 251 209 228 256 158 230 201 211 154 166 192 196 185 259 234 193 110 82 313 254 235 10 62 98 215 235 237 248 107 27 8 33 14 346 330 340 338 332 308 304 303 292 317 326 318 322 305 288 288 288 297 286 272 284 288 247 219 195 200 188 215 228 219 200
281 273 227 194 220 238 202 251 219 213 16 73 184 185 237 284 282 315 300 254 241 232 262 275 257 197 240 193 225 196 177 121 223 149 185 203 216 14 46 295 277 107 188 281 74 121 121 219 233 237 59 39 40 23 16 4 10 7 357 351 348 349 347 345 340 358 0 354 334 319 306 317 323 335 330 319 298 293 313 313 243 197 201 211 220 208 178
263 287 318 118 248 229 226 234 256 119 128 179 171 166 126 14 342 271 249 237 269 246 194 227 254 346 247 175 219 271 151 154 223 160 171 214 186 151 38 246 189 140 85 61 80 94 157 182 160 100 78 67 51 31 17 1 9 3 359 349 345 347 345 355 2 357 349 340 332 322 312 303 299 300 293 293 296 299 303 298 285 238 217 232 222 192 186
289 80 220 259 251 267 280 324 255 229 204 194 180 184 184 135 220 277 272 264 250 53 24 40 15 354 300 222 276 277 252 163 162 150 225 213 208 160 184 293 13 75 71 96 167 213 100 107 106 102 83 66 60 41 22 9 9 4 353 344 340 336 342 347 342 335 329 320 322 317 318 318 304 280 275 283 295 309 322 294 260 242 240 218 213 195 186
262 284 237 246 284 278 270 268 269 255 162 94 207 245 162 196 246 269 279 241 269 50 340 24 73 107 293 328 293 354 285 262 267 90 239 231 28 53 92 332 61 118 161 139 137 137 108 103 98 89 77 82 75 60 22 10 19 1 340 349 327 335 337 339 325 325 322 316 304 303 301 302 302 295 292 297 292 290 287 301 309 289 255 246 202 181 174
262 237 247 229 240 268 307 297 326 332 314 333 11 64 12 316 318 318 269 310 288 186 76 115 270 261 285 282 27 274 224 17 258 218 221 103 146 79 59 100 150 149 119 152 124 94 95 99 89 83 98 93 83 68 266 56 32 7 348 359 351 357 349 336 331 329 319 310 303 306 304 300 294 297 295 298 287 277 272 279 263 280 239 224 236 181 161
241 237 244 243 234 247 260 269 42 278 302 305 294 142 139 212 250 278 318 300 354 90 167 79 47 333 354 240 227 283 326 210 239 239 74 95 7 72 84 83 62 90 117 102 105 115 111 105 120 128 101 81 73 215 42 60 28 23 15 358 353 6 353 351 345 342 339 326 316 311 313 307 305 292 288 282 278 273 260 263 264 211 188 207 217 170 143